EW5286 Weather Reports


Display with metric or nautical units.
time (UTC)temp
F
wind
direction
speed
MPH
gust
MPH
rain 1hr
in
rain 24hr
in
rain mn
in
humidity
%
barometer
mb
20260902141611 83 254 0.0 4.0 0.00 0.00 0.00 72 1016.1
20260902141442 83 250 1.0 4.0 0.00 0.00 0.00 72 1018.0
20260902140943 83 228 1.0 2.0 0.00 0.00 0.00 73 1018.1
20260902140429 82 257 1.0 1.0 0.00 0.00 0.00 74 1018.0
20260902140036 82 269 0.0 1.0 0.00 0.00 0.00 74 1016.1
20260902135940 82 246 0.0 1.0 0.00 0.00 0.00 75 1017.9
20260902135428 82 269 1.0 1.0 0.00 0.00 0.00 75 1018.0
20260902134930 81 269 1.0 1.0 0.00 0.00 0.00 75 1018.0
20260902134515 80 285 0.0 1.0 0.00 0.00 0.00 76 1016.1
20260902134442 81 285 0.0 1.0 0.00 0.00 0.00 76 1017.9
20260902133921 80 272 0.0 0.0 0.00 0.00 0.00 77 1018.0
20260902133503 80 274 0.0 0.0 0.00 0.00 0.00 78 1018.0
20260902133111 79 274 0.0 0.0 0.00 0.00 0.00 78 1016.3
20260902132923 80 274 0.0 0.0 0.00 0.00 0.00 78 1018.1
20260902132434 79 274 0.0 1.0 0.00 0.00 0.00 79 1017.9
20260902131947 79 276 0.0 1.0 0.00 0.00 0.00 79 1017.9
20260902131551 78 278 0.0 1.0 0.00 0.00 0.00 80 1016.1
20260902131427 78 278 0.0 1.0 0.00 0.00 0.00 79 1017.9
20260902130939 78 278 0.0 0.0 0.00 0.00 0.00 79 1017.9
20260902130450 78 281 0.0 0.0 0.00 0.00 0.00 79 1017.9
20260902130100 77 281 0.0 0.0 0.00 0.00 0.00 80 1016.0
20260902125931 78 286 0.0 0.0 0.00 0.00 0.00 80 1017.8
20260902125422 78 286 0.0 0.0 0.00 0.00 0.00 80 1017.8
20260902124925 77 286 0.0 0.0 0.00 0.00 0.00 80 1017.8
20260902124503 77 287 0.0 0.0 0.00 0.00 0.00 80 1015.9
20260902124452 77 287 0.0 0.0 0.00 0.00 0.00 80 1017.7
20260902123923 77 288 0.0 0.0 0.00 0.00 0.00 80 1017.6
20260902123435 77 288 0.0 0.0 0.00 0.00 0.00 80 1017.5
20260902123056 76 288 0.0 0.0 0.00 0.00 0.00 81 1015.7
20260902122936 77 288 0.0 0.0 0.00 0.00 0.00 81 1017.5
20260902122421 77 288 0.0 0.0 0.00 0.00 0.00 81 1017.5
20260902121933 77 288 0.0 0.0 0.00 0.00 0.00 81 1017.5
20260902121541 76 288 0.0 1.0 0.00 0.00 0.00 81 1015.7
20260902121444 77 288 0.0 1.0 0.00 0.00 0.00 81 1017.5
20260902120925 77 259 1.0 1.0 0.00 0.00 0.00 81 1017.4
20260902120457 77 266 0.0 1.0 0.00 0.00 0.00 81 1017.3
20260902120021 76 268 0.0 1.0 0.00 0.00 0.00 81 1015.4
20260902115925 77 268 0.0 1.0 0.00 0.00 0.00 81 1017.3
20260902115427 77 268 0.0 1.0 0.00 0.00 0.00 81 1017.2
20260902114939 77 266 0.0 1.0 0.00 0.00 0.00 81 1017.2
20260902114528 76 258 1.0 1.0 0.00 0.00 0.00 81 1015.4
20260902114429 77 257 1.0 1.0 0.00 0.00 0.00 81 1017.1
20260902114000 76 258 0.0 1.0 0.00 0.00 0.00 82 1017.1
20260902113422 77 257 0.0 1.0 0.00 0.00 0.00 82 1017.1
20260902113018 76 253 0.0 1.0 0.00 0.00 0.00 82 1015.2
20260902112928 76 253 1.0 1.0 0.00 0.00 0.00 82 1017.0
20260902112440 76 253 1.0 1.0 0.00 0.00 0.00 82 1016.9
20260902112011 77 253 1.0 1.0 0.00 0.00 0.00 81 1016.9
20260902111501 76 253 0.0 1.0 0.00 0.00 0.00 81 1015.1
20260902111449 77 252 0.0 1.0 0.00 0.00 0.00 81 1017.0
20260902110940 77 253 0.0 1.0 0.00 0.00 0.00 80 1017.0
20260902110105 77 253 0.0 1.0 0.00 0.00 0.00 79 1015.0
20260902105943 78 253 0.0 1.0 0.00 0.00 0.00 79 1016.9
20260902105429 78 253 0.0 1.0 0.00 0.00 0.00 79 1016.9
20260902104943 78 246 0.0 1.0 0.00 0.00 0.00 79 1016.9
20260902104512 77 246 0.0 2.0 0.00 0.00 0.00 79 1015.0
20260902104422 78 246 1.0 2.0 0.00 0.00 0.00 78 1016.8
20260902103932 78 246 1.0 2.0 0.00 0.00 0.00 78 1016.8
20260902103424 78 245 1.0 3.0 0.00 0.00 0.00 78 1016.7
20260902103039 78 247 1.0 3.0 0.00 0.00 0.00 78 1014.9
20260902102935 78 252 2.0 3.0 0.00 0.00 0.00 78 1016.7
20260902102437 79 245 2.0 3.0 0.00 0.00 0.00 77 1016.7
20260902101929 79 240 2.0 4.0 0.00 0.00 0.00 77 1016.8
20260902101546 78 242 2.0 4.0 0.00 0.00 0.00 77 1015.0
20260902101455 79 248 3.0 4.0 0.00 0.00 0.00 77 1016.8
20260902100941 79 241 3.0 4.0 0.00 0.00 0.00 77 1016.8
20260902100422 79 243 3.0 4.0 0.00 0.00 0.00 77 1016.7
20260902100005 78 240 3.0 5.0 0.00 0.00 0.00 77 1014.8
20260902095931 79 240 3.0 5.0 0.00 0.00 0.00 77 1016.7
20260902095425 79 243 4.0 5.0 0.00 0.00 0.00 76 1016.7
20260902094925 79 233 4.0 5.0 0.00 0.00 0.00 76 1016.6
20260902094511 79 238 3.0 5.0 0.00 0.00 0.00 76 1014.7
20260902094434 79 239 4.0 5.0 0.00 0.00 0.00 76 1016.6
20260902093926 80 238 4.0 6.0 0.00 0.00 0.00 75 1016.6
20260902093437 80 240 4.0 6.0 0.00 0.00 0.00 75 1016.5
20260902093106 79 238 4.0 6.0 0.00 0.00 0.00 75 1014.6
20260902092939 80 239 4.0 6.0 0.00 0.00 0.00 75 1016.4
20260902092429 80 242 4.0 6.0 0.00 0.00 0.00 75 1016.5
20260902091941 80 246 4.0 6.0 0.00 0.00 0.00 74 1016.4
20260902091504 80 239 3.0 6.0 0.00 0.00 0.00 74 1014.5
20260902091421 81 241 4.0 6.0 0.00 0.00 0.00 74 1016.4
20260902090932 81 238 4.0 7.0 0.00 0.00 0.00 73 1016.5
20260902090435 81 240 5.0 7.0 0.00 0.00 0.00 73 1016.5
20260902090010 80 242 4.0 7.0 0.00 0.00 0.00 74 1014.7
20260902085925 81 239 4.0 6.0 0.00 0.00 0.00 74 1016.5
20260902085430 81 240 4.0 6.0 0.00 0.00 0.00 74 1016.5
20260902084933 81 239 4.0 5.0 0.00 0.00 0.00 74 1016.4
20260902084516 80 240 3.0 4.0 0.00 0.00 0.00 74 1014.5
20260902084422 81 240 4.0 4.0 0.00 0.00 0.00 74 1016.4
20260902083931 81 241 3.0 4.0 0.00 0.00 0.00 74 1016.4
20260902083442 81 241 3.0 5.0 0.00 0.00 0.00 74 1016.3
20260902083043 80 240 3.0 5.0 0.00 0.00 0.00 74 1014.5
20260902082923 81 241 3.0 5.0 0.00 0.00 0.00 74 1016.4
20260902082504 80 240 4.0 4.0 0.00 0.00 0.00 75 1016.3
20260902081926 80 241 4.0 4.0 0.00 0.00 0.00 75 1016.3
20260902081534 80 242 2.0 3.0 0.00 0.00 0.00 75 1014.4
20260902081456 80 242 3.0 3.0 0.00 0.00 0.00 75 1016.3
20260902080924 80 243 3.0 3.0 0.00 0.00 0.00 75 1016.3
20260902080435 80 243 3.0 3.0 0.00 0.00 0.00 75 1016.3
20260902080112 80 239 3.0 3.0 0.00 0.00 0.00 75 1014.5
20260902075935 80 239 3.0 3.0 0.00 0.00 0.00 75 1016.3
20260902075425 80 236 3.0 3.0 0.00 0.00 0.00 75 1016.3
20260902074924 80 234 2.0 3.0 0.00 0.00 0.00 75 1016.3
20260902074502 80 238 2.0 3.0 0.00 0.00 0.00 75 1014.4
20260902074434 81 238 3.0 3.0 0.00 0.00 0.00 75 1016.3
20260902073924 81 242 3.0 3.0 0.00 0.00 0.00 75 1016.4
20260902073426 81 248 3.0 3.0 0.00 0.00 0.00 75 1016.4
20260902073010 80 242 2.0 4.0 0.00 0.00 0.00 75 1014.5
20260902072939 81 242 2.0 4.0 0.00 0.00 0.00 75 1016.4
20260902072428 81 241 3.0 4.0 0.00 0.00 0.00 74 1016.4
20260902071938 81 242 3.0 4.0 0.00 0.00 0.00 74 1016.5
20260902071615 81 243 2.0 4.0 0.00 0.00 0.00 74 1014.7
20260902071440 81 243 3.0 4.0 0.00 0.00 0.00 74 1016.6
20260902070931 81 243 3.0 5.0 0.00 0.00 0.00 74 1016.5
20260902070443 81 247 4.0 5.0 0.00 0.00 0.00 73 1016.5
20260902070006 81 239 3.0 5.0 0.00 0.00 0.00 73 1014.7
20260902065924 82 239 4.0 5.0 0.00 0.00 0.00 73 1016.5
20260902065454 82 223 4.0 5.0 0.00 0.00 0.00 73 1016.5
20260902064923 82 238 4.0 6.0 0.00 0.00 0.00 73 1016.5
20260902064530 82 233 3.0 6.0 0.00 0.00 0.00 72 1014.6
20260902064433 82 238 3.0 6.0 0.00 0.00 0.00 72 1016.5
20260902063935 82 236 4.0 6.0 0.00 0.00 0.00 72 1016.5
20260902063442 82 239 5.0 6.0 0.00 0.00 0.00 72 1016.5
20260902063024 82 239 4.0 5.0 0.00 0.00 0.00 72 1014.6
20260902062931 82 240 4.0 5.0 0.00 0.00 0.00 72 1016.5
20260902062443 83 240 4.0 5.0 0.00 0.00 0.00 71 1016.4
20260902061922 83 240 4.0 5.0 0.00 0.00 0.00 71 1016.4
20260902061612 82 239 4.0 5.0 0.00 0.00 0.00 71 1014.5
20260902061503 83 237 4.0 9.0 0.00 0.00 0.00 71 1016.4
20260902060921 83 234 4.0 9.0 0.00 0.00 0.00 70 1016.4
20260902060433 83 239 4.0 7.0 0.00 0.00 0.00 70 1016.4
20260902060049 83 231 4.0 7.0 0.00 0.00 0.00 70 1014.5
20260902055932 83 239 5.0 7.0 0.00 0.00 0.00 70 1016.4
20260902055424 83 234 4.0 7.0 0.00 0.00 0.00 69 1016.3
20260902054936 84 237 4.0 7.0 0.00 0.00 0.00 69 1016.3
20260902054600 83 240 4.0 8.0 0.00 0.00 0.00 69 1014.3
20260902054439 84 194 5.0 8.0 0.00 0.00 0.00 69 1016.3
20260902053928 83 239 5.0 8.0 0.00 0.00 0.00 69 1016.2
20260902053438 83 240 4.0 5.0 0.00 0.00 0.00 69 1016.2
20260902053104 83 227 4.0 5.0 0.00 0.00 0.00 69 1014.3
20260902052940 83 239 4.0 6.0 0.00 0.00 0.00 69 1016.2
20260902052430 83 239 4.0 7.0 0.00 0.00 0.00 68 1016.1
20260902051942 84 236 3.0 7.0 0.00 0.00 0.00 68 1016.0
20260902051549 83 215 4.0 7.0 0.00 0.00 0.00 68 1014.1
20260902051447 84 226 4.0 7.0 0.00 0.00 0.00 68 1016.0
20260902050929 84 221 4.0 6.0 0.00 0.00 0.00 68 1016.0
20260902050440 84 240 3.0 6.0 0.00 0.00 0.00 68 1015.9
20260902050056 83 219 3.0 6.0 0.00 0.00 0.00 67 1014.1
20260902045939 84 211 4.0 6.0 0.00 0.00 0.00 67 1015.9
20260902045429 84 223 4.0 7.0 0.00 0.00 0.00 67 1016.0
20260902044941 84 227 4.0 7.0 0.00 0.00 0.00 67 1016.0
20260902044600 84 212 3.0 6.0 0.00 0.00 0.00 67 1014.1
20260902044421 84 228 3.0 6.0 0.00 0.00 0.00 67 1016.0
20260902043932 84 230 4.0 8.0 0.00 0.00 0.00 66 1016.0
20260902043424 84 231 4.0 8.0 0.00 0.00 0.00 66 1016.0
20260902043053 84 231 3.0 6.0 0.00 0.00 0.00 66 1014.0
20260902042924 84 230 4.0 6.0 0.00 0.00 0.00 66 1015.9
20260902042455 84 216 4.0 6.0 0.00 0.00 0.00 66 1015.9
20260902041925 84 233 4.0 6.0 0.00 0.00 0.00 65 1015.9
20260902041539 84 231 3.0 6.0 0.00 0.00 0.00 65 1014.1
20260902041434 85 224 3.0 6.0 0.00 0.00 0.00 65 1015.9
20260902040944 85 232 4.0 5.0 0.00 0.00 0.00 65 1016.0
20260902040426 85 237 3.0 5.0 0.00 0.00 0.00 64 1016.0
20260902040018 84 214 3.0 6.0 0.00 0.00 0.00 64 1014.1
20260902035952 85 223 4.0 6.0 0.00 0.00 0.00 64 1016.0
20260902035423 85 233 3.0 6.0 0.00 0.00 0.00 64 1016.1
20260902034926 85 219 3.0 6.0 0.00 0.00 0.00 63 1016.0
20260902034504 85 217 2.0 6.0 0.00 0.00 0.00 63 1014.1
20260902034435 85 202 3.0 6.0 0.00 0.00 0.00 63 1016.0
20260902033927 85 268 3.0 6.0 0.00 0.00 0.00 62 1015.9
20260902033429 86 213 4.0 6.0 0.00 0.00 0.00 62 1015.9
20260902033013 85 199 3.0 7.0 0.00 0.00 0.00 62 1014.0
20260902033002 86 218 3.0 7.0 0.00 0.00 0.00 62 1015.9
20260902032430 86 218 3.0 7.0 0.00 0.00 0.00 61 1015.9
20260902031943 86 200 3.0 7.0 0.00 0.00 0.00 61 1015.9
20260902031601 85 236 3.0 7.0 0.00 0.00 0.00 61 1014.0
20260902031443 86 221 4.0 7.0 0.00 0.00 0.00 61 1015.8
20260902030932 86 229 3.0 6.0 0.00 0.00 0.00 60 1015.9
20260902030426 86 219 3.0 7.0 0.00 0.00 0.00 60 1015.8
20260902030048 86 233 2.0 7.0 0.00 0.00 0.00 60 1013.9
20260902025926 86 281 3.0 7.0 0.00 0.00 0.00 60 1015.8
20260902025447 86 210 3.0 6.0 0.00 0.00 0.00 59 1015.7
20260902024928 86 239 3.0 6.0 0.00 0.00 0.00 59 1015.7
20260902024534 86 225 2.0 6.0 0.00 0.00 0.00 59 1013.9
20260902024434 86 146 3.0 6.0 0.00 0.00 0.00 59 1015.6
20260902023945 87 236 2.0 6.0 0.00 0.00 0.00 58 1015.6
20260902023035 86 216 2.0 6.0 0.00 0.00 0.00 58 1013.7
20260902022926 87 195 2.0 6.0 0.00 0.00 0.00 58 1015.6
20260902022428 87 233 2.0 7.0 0.00 0.00 0.00 57 1015.6
20260902021958 87 257 2.0 7.0 0.00 0.00 0.00 56 1015.5
20260902021518 87 195 2.0 6.0 0.00 0.00 0.00 56 1013.5
20260902021447 88 226 3.0 6.0 0.00 0.00 0.00 56 1015.4
20260902020937 88 214 2.0 6.0 0.00 0.00 0.00 55 1015.3
20260902020449 88 228 2.0 6.0 0.00 0.00 0.00 54 1015.2
20260902020003 88 219 2.0 6.0 0.00 0.00 0.00 53 1013.3
20260902015930 88 266 2.0 6.0 0.00 0.00 0.00 53 1015.1
20260902015442 88 240 3.0 6.0 0.00 0.00 0.00 53 1015.0
20260902014926 88 190 2.0 6.0 0.00 0.00 0.00 53 1015.0
20260902014521 88 218 2.0 6.0 0.00 0.00 0.00 53 1013.1
20260902014435 88 239 3.0 7.0 0.00 0.00 0.00 53 1014.9
20260902013946 88 276 3.0 7.0 0.00 0.00 0.00 54 1014.9
20260902013452 88 181 2.0 6.0 0.00 0.00 0.00 54 1014.9
20260902013042 88 254 2.0 6.0 0.00 0.00 0.00 55 1013.0
20260902012942 89 195 2.0 6.0 0.00 0.00 0.00 55 1014.9
20260902012423 89 217 3.0 6.0 0.00 0.00 0.00 54 1014.8
20260902011935 89 192 2.0 6.0 0.00 0.00 0.00 54 1014.9
20260902011556 88 216 2.0 6.0 0.00 0.00 0.00 54 1012.9
20260902011446 89 216 3.0 6.0 0.00 0.00 0.00 54 1014.9
20260902010925 89 240 2.0 6.0 0.00 0.00 0.00 54 1014.9
20260902010437 89 212 2.0 4.0 0.00 0.00 0.00 54 1014.8
20260902010118 89 187 1.0 5.0 0.00 0.00 0.00 54 1013.0
20260902005950 89 223 2.0 5.0 0.00 0.00 0.00 54 1014.9
20260902005430 89 205 2.0 5.0 0.00 0.00 0.00 55 1014.9
20260902004942 89 278 2.0 6.0 0.00 0.00 0.00 55 1014.9
20260902004602 89 254 1.0 7.0 0.00 0.00 0.00 55 1013.1
20260902004423 90 288 3.0 7.0 0.00 0.00 0.00 55 1014.9
20260902003935 90 233 2.0 7.0 0.00 0.00 0.00 55 1014.9
20260902003446 90 194 2.0 6.0 0.00 0.00 0.00 55 1014.9
20260902003005 90 243 2.0 5.0 0.00 0.00 0.00 55 1013.2
20260902002946 90 216 2.0 5.0 0.00 0.00 0.00 55 1015.0
20260902002437 90 230 1.0 5.0 0.00 0.00 0.00 55 1015.0
20260902001928 91 155 2.0 5.0 0.00 0.00 0.00 54 1015.1
20260902001557 91 266 1.0 4.0 0.00 0.00 0.00 54 1013.1
20260902001500 91 206 2.0 4.0 0.00 0.00 0.00 54 1015.0
20260902000936 91 283 1.0 7.0 0.00 0.00 0.00 53 1015.0
20260902000429 92 249 2.0 8.0 0.00 0.00 0.00 52 1015.1
20260902000045 91 215 3.0 8.0 0.00 0.00 0.00 52 1013.1
20260901235936 92 201 3.0 7.0 0.00 0.00 0.00 52 1015.0
20260901235438 92 221 2.0 7.0 0.00 0.00 0.00 51 1015.1
20260901234929 92 256 3.0 8.0 0.00 0.00 0.00 50 1015.2
20260901234548 92 213 3.0 8.0 0.00 0.00 0.00 49 1013.3
20260901234430 93 264 3.0 8.0 0.00 0.00 0.00 49 1015.2
20260901233922 93 250 4.0 8.0 0.00 0.00 0.00 50 1015.2
20260901233433 93 252 3.0 6.0 0.00 0.00 0.00 50 1015.2
20260901233100 93 243 2.0 6.0 0.00 0.00 0.00 49 1013.2
20260901232933 93 259 2.0 9.0 0.00 0.00 0.00 49 1015.1
20260901232444 94 244 2.0 9.0 0.00 0.00 0.00 48 1015.2
20260901231935 94 251 2.0 10.0 0.00 0.00 0.00 47 1015.2
20260901231552 93 241 2.0 10.0 0.00 0.00 0.00 47 1013.3
20260901231446 94 163 4.0 10.0 0.00 0.00 0.00 46 1015.2
20260901230927 94 243 4.0 9.0 0.00 0.00 0.00 46 1015.2
20260901230438 94 235 3.0 9.0 0.00 0.00 0.00 46 1015.3
20260901230030 94 250 4.0 9.0 0.00 0.00 0.00 46 1013.4
20260901225927 94 238 3.0 9.0 0.00 0.00 0.00 46 1015.2
20260901225457 95 180 4.0 9.0 0.00 0.00 0.00 46 1015.2
20260901224945 95 242 4.0 11.0 0.00 0.00 0.00 46 1015.3
20260901224507 94 163 2.0 11.0 0.00 0.00 0.00 46 1013.3
20260901224444 95 240 2.0 11.0 0.00 0.00 0.00 46 1015.2
20260901223933 95 273 4.0 11.0 0.00 0.00 0.00 45 1015.1
20260901223446 95 219 4.0 10.0 0.00 0.00 0.00 45 1015.1
20260901223058 95 283 4.0 10.0 0.00 0.00 0.00 44 1013.2
20260901222927 95 242 5.0 10.0 0.00 0.00 0.00 44 1015.0
20260901222436 95 153 5.0 10.0 0.00 0.00 0.00 46 1015.0
20260901221947 96 215 3.0 8.0 0.00 0.00 0.00 45 1015.0
20260901221541 96 246 3.0 8.0 0.00 0.00 0.00 45 1013.2
20260901221425 96 194 4.0 7.0 0.00 0.00 0.00 45 1015.1
20260901220937 96 300 1.0 8.0 0.00 0.00 0.00 45 1015.1
20260901220428 96 210 2.0 9.0 0.00 0.00 0.00 45 1015.1
20260901220051 96 231 2.0 9.0 0.00 0.00 0.00 45 1013.3
20260901215929 96 187 4.0 10.0 0.00 0.00 0.00 44 1015.2
20260901215421 97 180 6.0 10.0 0.00 0.00 0.00 40 1015.2
20260901214932 97 235 1.0 8.0 0.00 0.00 0.00 44 1015.2
20260901214555 96 240 3.0 10.0 0.00 0.00 0.00 44 1013.3
20260901214432 96 223 6.0 10.0 0.00 0.00 0.00 44 1015.2
20260901213924 97 244 6.0 10.0 0.00 0.00 0.00 43 1015.3
20260901213456 97 240 3.0 9.0 0.00 0.00 0.00 42 1015.4
20260901213045 96 236 3.0 11.0 0.00 0.00 0.00 43 1013.5
20260901212943 97 240 4.0 11.0 0.00 0.00 0.00 44 1015.4
20260901212423 97 229 4.0 11.0 0.00 0.00 0.00 44 1015.3
20260901211934 97 234 5.0 11.0 0.00 0.00 0.00 43 1015.5
20260901211529 97 189 3.0 8.0 0.00 0.00 0.00 42 1013.6
20260901211423 97 229 4.0 8.0 0.00 0.00 0.00 43 1015.5
20260901210923 98 246 6.0 13.0 0.00 0.00 0.00 41 1015.6
20260901210435 98 151 5.0 13.0 0.00 0.00 0.00 42 1015.6
20260901210040 98 243 4.0 10.0 0.00 0.00 0.00 41 1013.7
20260901205947 99 195 2.0 10.0 0.00 0.00 0.00 41 1015.6
20260901205455 98 234 5.0 10.0 0.00 0.00 0.00 40 1015.6
20260901204936 98 250 3.0 11.0 0.00 0.00 0.00 42 1015.6
20260901204525 98 246 3.0 11.0 0.00 0.00 0.00 41 1013.8
20260901204425 98 241 4.0 11.0 0.00 0.00 0.00 41 1015.7
20260901203935 98 240 4.0 12.0 0.00 0.00 0.00 42 1015.7
20260901203447 98 198 5.0 12.0 0.00 0.00 0.00 41 1015.8
20260901203005 98 243 6.0 12.0 0.00 0.00 0.00 41 1013.9
20260901202928 99 219 7.0 12.0 0.00 0.00 0.00 40 1015.8
20260901202438 100 217 4.0 7.0 0.00 0.00 0.00 40 1015.9
20260901201950 100 205 4.0 7.0 0.00 0.00 0.00 39 1015.9
20260901201512 99 219 1.0 6.0 0.00 0.00 0.00 39 1014.0
20260901201431 99 234 3.0 9.0 0.00 0.00 0.00 40 1015.9
20260901200936 98 222 4.0 13.0 0.00 0.00 0.00 41 1015.9
20260901200436 98 221 4.0 13.0 0.00 0.00 0.00 41 1016.0
20260901200037 97 186 4.0 14.0 0.00 0.00 0.00 42 1014.1
20260901195926 98 250 3.0 14.0 0.00 0.00 0.00 42 1016.1
20260901195439 98 235 4.0 14.0 0.00 0.00 0.00 41 1016.1
20260901194941 98 240 3.0 10.0 0.00 0.00 0.00 41 1016.2
20260901194522 97 234 4.0 10.0 0.00 0.00 0.00 40 1014.3
20260901194429 97 176 5.0 10.0 0.00 0.00 0.00 40 1016.2
20260901193931 98 212 5.0 11.0 0.00 0.00 0.00 40 1016.2
20260901193442 99 233 7.0 11.0 0.00 0.00 0.00 41 1016.4
20260901193029 98 264 1.0 8.0 0.00 0.00 0.00 40 1014.4
20260901192932 98 219 1.0 8.0 0.00 0.00 0.00 40 1016.3
20260901192435 98 199 3.0 12.0 0.00 0.00 0.00 40 1016.4
20260901191946 97 159 6.0 12.0 0.00 0.00 0.00 42 1016.4
20260901191527 97 127 4.0 8.0 0.00 0.00 0.00 41 1014.5
20260901191435 98 172 5.0 8.0 0.00 0.00 0.00 41 1016.4
20260901190946 98 239 4.0 8.0 0.00 0.00 0.00 42 1016.5
20260901190448 97 196 3.0 8.0 0.00 0.00 0.00 42 1016.5
20260901190002 97 254 2.0 8.0 0.00 0.00 0.00 41 1014.6
20260901185937 97 237 3.0 8.0 0.00 0.00 0.00 40 1016.6
20260901185427 97 185 5.0 9.0 0.00 0.00 0.00 40 1016.7
20260901184930 97 181 5.0 9.0 0.00 0.00 0.00 42 1016.8
20260901184509 97 264 4.0 9.0 0.00 0.00 0.00 42 1014.8
20260901184436 97 176 5.0 9.0 0.00 0.00 0.00 42 1016.8
20260901183928 98 241 2.0 6.0 0.00 0.00 0.00 44 1016.8
20260901183428 98 253 3.0 6.0 0.00 0.00 0.00 46 1016.9
20260901183019 97 158 2.0 6.0 0.00 0.00 0.00 46 1015.0
20260901182941 98 198 2.0 6.0 0.00 0.00 0.00 47 1016.9
20260901182449 97 214 4.0 6.0 0.00 0.00 0.00 48 1017.0
20260901181928 96 237 3.0 6.0 0.00 0.00 0.00 47 1017.2
20260901181522 96 255 4.0 6.0 0.00 0.00 0.00 46 1015.3
20260901181441 96 240 5.0 6.0 0.00 0.00 0.00 46 1017.2
20260901180950 96 254 2.0 7.0 0.00 0.00 0.00 48 1017.3
20260901180433 95 210 3.0 12.0 0.00 0.00 0.00 49 1017.5
20260901180031 95 214 5.0 12.0 0.00 0.00 0.00 48 1015.6
20260901175923 95 236 6.0 12.0 0.00 0.00 0.00 48 1017.5
20260901175425 96 277 2.0 9.0 0.00 0.00 0.00 50 1017.5
20260901174936 95 172 5.0 9.0 0.00 0.00 0.00 49 1017.7
20260901174540 95 234 4.0 8.0 0.00 0.00 0.00 48 1015.8
20260901174446 96 194 3.0 7.0 0.00 0.00 0.00 49 1017.7
20260901173927 95 11 2.0 6.0 0.00 0.00 0.00 49 1017.8
20260901173438 96 161 3.0 8.0 0.00 0.00 0.00 48 1017.8
20260901173039 96 267 3.0 8.0 0.00 0.00 0.00 48 1016.0
20260901172949 96 182 4.0 8.0 0.00 0.00 0.00 48 1017.9
20260901172430 96 239 3.0 5.0 0.00 0.00 0.00 50 1017.9
20260901171942 95 240 2.0 4.0 0.00 0.00 0.00 52 1017.9
20260901171549 93 231 0.0 4.0 0.00 0.00 0.00 53 1016.1
20260901171422 93 213 2.0 4.0 0.00 0.00 0.00 53 1018.1
20260901170934 93 235 2.0 4.0 0.00 0.00 0.00 55 1018.1
20260901170426 94 229 3.0 4.0 0.00 0.00 0.00 52 1018.1
20260901170155 94 245 0.0 6.0 0.00 0.00 0.00 52 1016.4
20260901165923 94 356 2.0 7.0 0.00 0.00 0.00 52 1018.3
20260901165435 94 162 4.0 8.0 0.00 0.00 0.00 50 1018.4
20260901164946 95 256 3.0 8.0 0.00 0.00 0.00 51 1018.4
20260901164602 95 210 3.0 7.0 0.00 0.00 0.00 51 1016.6
20260901164428 95 283 2.0 4.0 0.00 0.00 0.00 53 1018.5
20260901163938 94 250 1.0 4.0 0.00 0.00 0.00 54 1018.5
20260901163450 94 286 1.0 5.0 0.00 0.00 0.00 55 1018.5
20260901163011 93 231 2.0 5.0 0.00 0.00 0.00 55 1016.7
20260901162929 93 188 3.0 5.0 0.00 0.00 0.00 56 1018.6
20260901162421 93 213 0.0 7.0 0.00 0.00 0.00 55 1018.7
20260901161933 93 212 1.0 7.0 0.00 0.00 0.00 54 1018.7
20260901161612 93 237 3.0 7.0 0.00 0.00 0.00 53 1016.8
20260901161434 94 243 3.0 7.0 0.00 0.00 0.00 54 1018.8
20260901160925 94 205 1.0 4.0 0.00 0.00 0.00 54 1018.7
20260901160433 94 225 2.0 5.0 0.00 0.00 0.00 56 1018.7
20260901160041 93 284 1.0 5.0 0.00 0.00 0.00 56 1016.9
20260901155944 93 241 2.0 5.0 0.00 0.00 0.00 56 1018.7
20260901155425 92 240 2.0 4.0 0.00 0.00 0.00 58 1018.7
20260901154935 92 229 3.0 4.0 0.00 0.00 0.00 57 1018.7
20260901154549 91 262 0.0 3.0 0.00 0.00 0.00 58 1016.8
20260901154446 92 255 1.0 3.0 0.00 0.00 0.00 59 1018.7
20260901154010 91 265 1.0 3.0 0.00 0.00 0.00 61 1018.7
20260901153431 90 209 0.0 2.0 0.00 0.00 0.00 61 1018.7
20260901153032 89 191 0.0 3.0 0.00 0.00 0.00 61 1016.9
20260901152944 90 205 0.0 3.0 0.00 0.00 0.00 62 1018.7
20260901152425 90 248 2.0 3.0 0.00 0.00 0.00 61 1018.7
20260901151936 90 252 1.0 3.0 0.00 0.00 0.00 61 1018.7
20260901151539 89 276 0.0 3.0 0.00 0.00 0.00 62 1016.9
20260901151448 89 255 2.0 3.0 0.00 0.00 0.00 62 1018.7
20260901150929 89 268 1.0 2.0 0.00 0.00 0.00 64 1018.8
20260901150440 88 186 1.0 2.0 0.00 0.00 0.00 65 1018.8
20260901150045 87 278 0.0 2.0 0.00 0.00 0.00 65 1017.0
20260901145950 88 278 0.0 2.0 0.00 0.00 0.00 65 1018.9
20260901145430 87 275 0.0 3.0 0.00 0.00 0.00 66 1018.9
20260901144942 87 273 1.0 3.0 0.00 0.00 0.00 68 1018.9
20260901144529 86 264 1.0 3.0 0.00 0.00 0.00 67 1017.0
20260901144432 87 259 1.0 3.0 0.00 0.00 0.00 66 1018.8
20260901143934 86 258 0.0 2.0 0.00 0.00 0.00 68 1018.8
20260901143425 86 264 0.0 2.0 0.00 0.00 0.00 68 1018.8
20260901143038 85 245 0.0 2.0 0.00 0.00 0.00 68 1016.9
20260901142934 86 240 1.0 2.0 0.00 0.00 0.00 67 1018.8
20260901142436 85 261 0.0 1.0 0.00 0.00 0.00 69 1018.8
20260901141928 85 262 0.0 1.0 0.00 0.00 0.00 69 1018.8